When you browse on this site, cookies collect data to enhance your experience and personalize the content and advertising you see.
Visit our Privacy Policy to learn more. By continuing to use the site, you agree to this use of cookies and data.
  • In Österreich
  • Länderverzeichnis
  • Für 7 Tage
  • Wassertemperatur
  • Wetterkarte
  • News
  • Widgets
  • user-avatar
    Anmelden

    Stündliche Wetter Anatolivka

    Heute, 23 Oktober, Mittwoch

    Zeit Temperatur Niederschläge Wind Luftdruck Luftfeuchtigkeit
    00:00 +15°C° 0 mm 1 m/S 764 mmHg 50%
    01:00 +14°C° 0 mm 1 m/S 764 mmHg 51%
    02:00 +14°C° 0 mm 1 m/S 764 mmHg 51%
    03:00 +14°C° 0 mm 1 m/S 764 mmHg 52%
    04:00 +13°C° 0 mm 1 m/S 764 mmHg 53%
    05:00 +13°C° 0 mm 1 m/S 764 mmHg 53%
    06:00 +14°C° 0 mm 1 m/S 764 mmHg 51%
    07:00 +14°C° 0 mm 0 m/S 764 mmHg 49%
    08:00 +15°C° 0 mm 0 m/S 763 mmHg 47%
    09:00 +16°C° 0 mm 0 m/S 764 mmHg 43%
    10:00 +18°C° 0 mm 0 m/S 764 mmHg 39%
    11:00 +21°C° 0 mm 1 m/S 764 mmHg 35%
    12:00 +22°C° 0 mm 1 m/S 763 mmHg 33%
    13:00 +23°C° 0 mm 1 m/S 763 mmHg 32%
    14:00 +23°C° 0 mm 2 m/S 763 mmHg 31%
    15:00 +21°C° 0 mm 2 m/S 762 mmHg 35%
    16:00 +19°C° 0 mm 2 m/S 762 mmHg 40%
    17:00 +18°C° 0 mm 2 m/S 762 mmHg 44%
    18:00 +17°C° 0 mm 2 m/S 762 mmHg 45%
    19:00 +17°C° 0 mm 2 m/S 762 mmHg 47%
    20:00 +16°C° 0 mm 2 m/S 762 mmHg 48%
    21:00 +16°C° 0 mm 2 m/S 762 mmHg 49%
    22:00 +15°C° 0 mm 2 m/S 762 mmHg 50%
    23:00 +15°C° 0 mm 2 m/S 762 mmHg 51%

    Morgen, 24 Oktober, Donnerstag

    Zeit Temperatur Niederschläge Wind Luftdruck Luftfeuchtigkeit
    00:00 +15°C° 0 mm 1 m/S 762 mmHg 52%
    01:00 +14°C° 0 mm 1 m/S 762 mmHg 53%
    02:00 +14°C° 0 mm 1 m/S 762 mmHg 54%
    03:00 +14°C° 0 mm 1 m/S 762 mmHg 56%
    04:00 +13°C° 0 mm 1 m/S 762 mmHg 57%
    05:00 +12°C° 0 mm 0 m/S 761 mmHg 58%
    06:00 +13°C° 0 mm 0 m/S 762 mmHg 55%
    07:00 +14°C° 0 mm 0 m/S 762 mmHg 53%
    08:00 +15°C° 0 mm 0 m/S 762 mmHg 50%
    09:00 +18°C° 0 mm 1 m/S 762 mmHg 45%
    10:00 +20°C° 0 mm 1 m/S 762 mmHg 40%
    11:00 +22°C° 0 mm 1 m/S 762 mmHg 35%
    12:00 +21°C° 0 mm 2 m/S 761 mmHg 33%
    13:00 +23°C° 0 mm 2 m/S 761 mmHg 31%
    14:00 +24°C° 0 mm 2 m/S 761 mmHg 29%
    15:00 +21°C° 0 mm 2 m/S 760 mmHg 33%
    16:00 +20°C° 0 mm 2 m/S 760 mmHg 37%
    17:00 +18°C° 0 mm 2 m/S 760 mmHg 40%
    18:00 +17°C° 0 mm 2 m/S 760 mmHg 43%
    19:00 +18°C° 0 mm 1 m/S 760 mmHg 45%
    20:00 +16°C° 0 mm 1 m/S 760 mmHg 47%
    21:00 +16°C° 0 mm 1 m/S 761 mmHg 49%
    22:00 +15°C° 0 mm 1 m/S 761 mmHg 51%
    23:00 +15°C° 0 mm 1 m/S 761 mmHg 53%

    übermorgen, 25 Oktober, Freitag

    Zeit Temperatur Niederschläge Wind Luftdruck Luftfeuchtigkeit
    00:00 +15°C° 0 mm 1 m/S 761 mmHg 54%
    01:00 +14°C° 0 mm 1 m/S 761 mmHg 55%
    02:00 +14°C° 0 mm 1 m/S 760 mmHg 56%
    03:00 +14°C° 0 mm 1 m/S 760 mmHg 57%
    04:00 +13°C° 0 mm 1 m/S 760 mmHg 57%
    05:00 +13°C° 0 mm 1 m/S 760 mmHg 58%
    06:00 +14°C° 0 mm 1 m/S 761 mmHg 55%
    07:00 +15°C° 0 mm 1 m/S 761 mmHg 52%
    08:00 +15°C° 0 mm 1 m/S 761 mmHg 50%
    09:00 +18°C° 0 mm 1 m/S 761 mmHg 45%
    10:00 +20°C° 0 mm 1 m/S 761 mmHg 39%
    11:00 +22°C° 0 mm 1 m/S 761 mmHg 34%
    12:00 +22°C° 0 mm 1 m/S 761 mmHg 33%
    13:00 +23°C° 0 mm 1 m/S 761 mmHg 31%
    14:00 +23°C° 0 mm 1 m/S 761 mmHg 30%
    15:00 +22°C° 0 mm 1 m/S 761 mmHg 33%
    16:00 +21°C° 0 mm 1 m/S 761 mmHg 37%
    17:00 +19°C° 0 mm 1 m/S 760 mmHg 40%
    18:00 +19°C° 0 mm 1 m/S 761 mmHg 42%
    19:00 +18°C° 0 mm 1 m/S 761 mmHg 43%
    20:00 +18°C° 0 mm 1 m/S 761 mmHg 44%
    21:00 +16°C° 0 mm 1 m/S 761 mmHg 46%
    22:00 +16°C° 0 mm 1 m/S 761 mmHg 47%
    23:00 +16°C° 0 mm 2 m/S 761 mmHg 48%

    26 Oktober, Samstag

    Zeit Temperatur Niederschläge Wind Luftdruck Luftfeuchtigkeit
    00:00 +15°C° 0 mm 2 m/S 761 mmHg 49%
    01:00 +15°C° 0 mm 2 m/S 761 mmHg 50%
    02:00 +15°C° 0 mm 2 m/S 761 mmHg 50%
    03:00 +14°C° 0 mm 2 m/S 761 mmHg 51%
    04:00 +14°C° 0 mm 1 m/S 761 mmHg 52%
    05:00 +14°C° 0 mm 1 m/S 761 mmHg 53%
    06:00 +14°C° 0 mm 1 m/S 762 mmHg 51%
    07:00 +15°C° 0 mm 1 m/S 762 mmHg 50%
    08:00 +16°C° 0 mm 1 m/S 762 mmHg 48%
    09:00 +19°C° 0 mm 1 m/S 762 mmHg 44%
    10:00 +20°C° 0 mm 1 m/S 762 mmHg 40%
    11:00 +22°C° 0 mm 1 m/S 762 mmHg 35%
    12:00 +23°C° 0 mm 1 m/S 762 mmHg 34%
    13:00 +23°C° 0 mm 1 m/S 762 mmHg 33%
    14:00 +24°C° 0 mm 2 m/S 761 mmHg 31%
    15:00 +21°C° 0 mm 2 m/S 761 mmHg 36%
    16:00 +20°C° 0 mm 2 m/S 761 mmHg 41%
    17:00 +18°C° 0 mm 2 m/S 761 mmHg 46%
    18:00 +17°C° 0 mm 2 m/S 761 mmHg 49%
    19:00 +17°C° 0 mm 2 m/S 761 mmHg 52%
    20:00 +16°C° 0 mm 2 m/S 761 mmHg 55%
    21:00 +16°C° 0 mm 2 m/S 761 mmHg 57%
    22:00 +16°C° 0 mm 2 m/S 761 mmHg 58%
    23:00 +15°C° 0 mm 2 m/S 761 mmHg 59%

    27 Oktober, Sonntag

    Zeit Temperatur Niederschläge Wind Luftdruck Luftfeuchtigkeit
    00:00 +15°C° 0 mm 2 m/S 760 mmHg 60%
    01:00 +15°C° 0 mm 2 m/S 760 mmHg 61%
    02:00 +14°C° 0 mm 1 m/S 760 mmHg 62%
    03:00 +14°C° 0 mm 1 m/S 760 mmHg 62%
    04:00 +14°C° 0 mm 1 m/S 760 mmHg 63%
    05:00 +14°C° 0 mm 1 m/S 760 mmHg 63%
    06:00 +14°C° 0 mm 1 m/S 760 mmHg 61%
    07:00 +15°C° 0 mm 1 m/S 760 mmHg 59%
    08:00 +16°C° 0 mm 2 m/S 759 mmHg 57%
    09:00 +17°C° 0 mm 2 m/S 759 mmHg 52%
    10:00 +19°C° 0 mm 2 m/S 759 mmHg 47%
    11:00 +21°C° 0 mm 3 m/S 759 mmHg 41%
    12:00 +21°C° 0 mm 3 m/S 759 mmHg 41%
    13:00 +22°C° 0 mm 3 m/S 758 mmHg 41%
    14:00 +22°C° 0 mm 4 m/S 758 mmHg 40%
    15:00 +20°C° 0 mm 4 m/S 758 mmHg 49%
    16:00 +18°C° 0 mm 4 m/S 757 mmHg 57%
    17:00 +17°C° 0 mm 3 m/S 757 mmHg 66%
    18:00 +16°C° 0 mm 3 m/S 757 mmHg 68%
    19:00 +16°C° 0 mm 3 m/S 757 mmHg 71%
    20:00 +14°C° 0 mm 3 m/S 757 mmHg 74%
    21:00 +14°C° 0 mm 3 m/S 757 mmHg 73%
    22:00 +14°C° 0 mm 3 m/S 757 mmHg 71%
    23:00 +15°C° 0 mm 2 m/S 757 mmHg 70%

    28 Oktober, Montag

    Zeit Temperatur Niederschläge Wind Luftdruck Luftfeuchtigkeit
    00:00 +15°C° 0 mm 2 m/S 757 mmHg 68%
    01:00 +14°C° 0 mm 2 m/S 757 mmHg 65%
    02:00 +14°C° 0 mm 2 m/S 757 mmHg 62%
    03:00 +13°C° 0 mm 3 m/S 757 mmHg 63%
    04:00 +13°C° 0 mm 3 m/S 757 mmHg 65%
    05:00 +12°C° 0 mm 3 m/S 757 mmHg 66%
    06:00 +13°C° 0 mm 3 m/S 757 mmHg 66%
    07:00 +13°C° 0 mm 3 m/S 757 mmHg 66%
    08:00 +14°C° 0 mm 3 m/S 757 mmHg 67%
    09:00 +16°C° 0 mm 2 m/S 757 mmHg 63%
    10:00 +17°C° 0 mm 2 m/S 757 mmHg 59%
    11:00 +19°C° 0 mm 1 m/S 757 mmHg 56%
    12:00 +20°C° 0 mm 1 m/S 757 mmHg 54%
    13:00 +20°C° 0 mm 1 m/S 757 mmHg 52%
    14:00 +21°C° 0 mm 1 m/S 756 mmHg 50%
    15:00 +18°C° 0 mm 2 m/S 756 mmHg 55%
    16:00 +17°C° 0 mm 3 m/S 756 mmHg 60%
    17:00 +16°C° 0 mm 3 m/S 756 mmHg 65%
    18:00 +14°C° 0 mm 4 m/S 756 mmHg 69%
    19:00 +12°C° 0 mm 5 m/S 756 mmHg 73%
    20:00 +10°C° 0 mm 5 m/S 757 mmHg 76%
    21:00 +10°C° 0.5 mm 5 m/S 757 mmHg 72%
    22:00 +9°C° 0.5 mm 5 m/S 757 mmHg 67%
    23:00 +9°C° 0.5 mm 5 m/S 758 mmHg 62%

    29 Oktober, Dienstag

    Zeit Temperatur Niederschläge Wind Luftdruck Luftfeuchtigkeit
    00:00 +9°C° 0.1 mm 5 m/S 758 mmHg 60%
    01:00 +9°C° 0.1 mm 5 m/S 758 mmHg 58%
    02:00 +9°C° 0.1 mm 5 m/S 758 mmHg 56%
    03:00 +8°C° 0 mm 5 m/S 758 mmHg 58%
    04:00 +7°C° 0 mm 4 m/S 758 mmHg 61%
    05:00 +7°C° 0 mm 4 m/S 758 mmHg 63%
    06:00 +6°C° 0 mm 4 m/S 758 mmHg 61%
    07:00 +6°C° 0 mm 5 m/S 758 mmHg 59%
    08:00 +6°C° 0 mm 5 m/S 759 mmHg 57%
    09:00 +7°C° 0 mm 5 m/S 759 mmHg 52%
    10:00 +8°C° 0 mm 5 m/S 759 mmHg 47%
    11:00 +9°C° 0 mm 6 m/S 759 mmHg 42%
    12:00 +10°C° 0 mm 6 m/S 759 mmHg 42%
    13:00 +10°C° 0 mm 6 m/S 759 mmHg 41%
    14:00 +10°C° 0 mm 6 m/S 759 mmHg 40%
    15:00 +9°C° 0 mm 6 m/S 759 mmHg 42%
    16:00 +8°C° 0 mm 6 m/S 759 mmHg 43%
    17:00 +7°C° 0 mm 6 m/S 759 mmHg 45%
    18:00 +5°C° 0 mm 6 m/S 760 mmHg 47%
    19:00 +4°C° 0 mm 6 m/S 760 mmHg 50%
    20:00 +3°C° 0 mm 6 m/S 761 mmHg 53%
    21:00 +3°C° 0 mm 6 m/S 761 mmHg 57%
    22:00 +2°C° 0 mm 6 m/S 761 mmHg 62%
    23:00 +2°C° 0 mm 7 m/S 762 mmHg 66%
    Mehr zeigen